Location: Poughquag
(41.6090°N, 73.6820°W)
Time: 05:06:29
(UTC-04:00)

STARLINK-1335 - Pass Details

Date: 29 May 2020
Orbit: 549 x 550 km, 53.0° (Epoch: 26 September)

Event Time Altitude Azimuth Distance (km) Brightness Sun altitude
Rises 03:05:40 0° 301° (WNW) 2,731 7.2 -19.5°
Reaches altitude 10° 03:08:35 10° 322° (NW) 1,830 6.5 -19.3°
Maximum altitude 03:11:20 17° 4° (N) 1,436 6.5 -19.0°
Drops below altitude 10° 03:14:05 10° 46° (NE) 1,824 7.5 -18.7°
Sets 03:16:59 0° 67° (ENE) 2,717 8.2 -18.4°
